Regional Weather Roundup
Issued by NWS Sterling, VA

Home | Current Version | Previous Version | Text Only | Print | Product List | Glossary On
Versions: 1 2 3 4 5 6 7 8 9 10 11 12 13 14 15 16 17 18 19 20 21 22 23 24 25 26 27 28 29 30 31 32 33 34 35 36 37 38 39 40 41 42 43 44 45 46 47 48 49 50
000
ASUS41 KLWX 212210
RWRLWX

REGIONAL WEATHER ROUNDUP
NATIONAL WEATHER SERVICE BALTIMORE MD/WASHINGTON DC
500 PM EST SUN DEC 21 2014

Note: "FAIR" indicates few or no clouds below 12,000 feet
with no significant weather and/or obstructions to visibility.
 TC=TEMPERATURE CELSIUS

 * =Non NWS site. Station does not report precipitation (e.g. rain,
    snow, etc.), thunder, or fog.

DCZ001-MDZ009-015-VAZ040>042-051-053>054-212300-
WASHINGTON METRO

CITY           SKY/WX    TMP DP  RH WIND       PRES   REMARKS
WASHINGTON NAT PTCLDY    42  23  46 CALM      30.33R
DULLES         PTCLDY    36  24  62 CALM      30.31R
ANDREWS AFB    PTCLDY    39  23  52 NW3       30.31R
FT BELVOIR     CLEAR     39  25  56 CALM      30.32R HAZE
QUANTICO       CLEAR     40  27  59 CALM      30.32R
COLLEGE PARK*  CLEAR     37  25  60 CALM      30.32R
LEESBURG*      CLEAR     37  28  70 MISG      30.31R
MANASSAS*      CLEAR     39  27  60 NE3       30.31R
GAITHERSBURG*  CLEAR     36  21  55 CALM      30.34R

$$

MDZ006>007-011-014-212300-
BALTIMORE METRO

CITY           SKY/WX    TMP DP  RH WIND       PRES   REMARKS
BWI AIRPORT    PTCLDY    36  23  59 SW3       30.30R
MD SCIENCE CTR   N/A     40  23  50 MISG      30.29R
MARTIN STATE   PTCLDY    37  28  70 CALM      30.32R
ANNAPOLIS      CLEAR     38  26  62 E5        30.31R
FORT MEADE*    CLEAR     34  23  64 SW3       30.34R

$$

MDZ012-015-019>023-212300-
MARYLAND EASTERN SHORE

CITY           SKY/WX    TMP DP  RH WIND       PRES   REMARKS
OCEAN CITY     CLEAR     37  28  70 NE3       30.30R HAZE
SALISBURY      CLEAR     39  26  59 CALM      30.30R
BAY BRIDGE AP*   N/A     36  23  60 CALM      30.32R
CAMBRIDGE*     CLEAR     36  27  69 CALM      30.31R
EASTON*        CLEAR     37  27  65 CALM      30.34R

$$

MDZ017>025-212300-
SOUTHERN MARYLAND

CITY           SKY/WX    TMP DP  RH WIND       PRES   REMARKS
PATUXENT RIVER PTCLDY    35  25  66 CALM      30.32R
ST INIGOES     CLEAR     36  25  64 CALM      30.32R
LEONARDTOWN*   CLEAR     36  28  75 CALM      30.33R

$$

MDZ003>005-212300-
NORTH CENTRAL MARYLAND

CITY           SKY/WX    TMP DP  RH WIND       PRES   REMARKS
FREDERICK*     CLEAR     37  21  52 CALM      30.33R
HAGERSTOWN APT CLEAR     36  21  54 CALM      30.28R
WESTMINSTER*   CLEAR     34  21  60 CALM      30.29R

$$

MDZ501>502-212300-
WESTERN MARYLAND

CITY           SKY/WX    TMP DP  RH WIND       PRES   REMARKS
OAKLAND*       MOCLDY    32  30  93 SE3       30.15S
CUMBERLAND*    CLEAR     37  27  65 S3        30.29S

$$

VAZ025>031-212300-
SHENANDOAH VALLEY

CITY           SKY/WX    TMP DP  RH WIND       PRES   REMARKS
WINCHESTER*    CLEAR     37  23  56 E3        30.26F
FRONT ROYAL*   FAIR      36  27  69 CALM      30.25F
LURAY*         FAIR      39  30  70 NE3       30.24F
NEW MARKET*    FAIR      34  26  72 NE5       30.23F
STAUNTON*      CLEAR     41  27  56 CALM      30.24S
WAYNESBORO*    FAIR      37  26  64 SE3       30.22S

$$

WVZ021-048>050-054>055-212300-
EASTERN WEST VIRGINIA PANHANDLE

CITY           SKY/WX    TMP DP  RH WIND       PRES   REMARKS
MARTINSBURG    CLEAR     36  21  54 E7        30.28R
PETERSBURG*    CLEAR     38  26  61 CALM      30.23R

$$

VAZ036>039-050-212300-
CENTRAL FOOTHILLS

CITY           SKY/WX    TMP DP  RH WIND       PRES   REMARKS
CHARLOTTESVILL CLEAR     41  27  57 CALM      30.26S
CULPEPER*      CLEAR     37  28  70 CALM      30.29F
ORANGE*        CLEAR     41  28  60 CALM      30.29S
GORDONSVILLE*  FAIR      37  27  66 CALM      30.27S
WARRENTON*     FAIR      37  31  77 E3        30.28F

$$

VAZ055>057-212300-
NORTH AND CENTRAL PIEDMONT

CITY           SKY/WX    TMP DP  RH WIND       PRES   REMARKS
FREDERICKSBRG* CLEAR     41  28  58 SE3       30.30R
STAFFORD*      CLEAR     37  25  60 E3        30.34S

$$

NCZ024-NYZ072-PAZ021-071-VAZ022-071-212300-
OTHER REGIONAL OBSERVATIONS

CITY           SKY/WX    TMP DP  RH WIND       PRES   REMARKS
NEW YORK CITY  CLOUDY    35  26  69 N8        30.31S WCI  29
PHILADELPHIA   PTCLDY    37  21  52 NW8       30.32R
PITTSBURGH     MOCLDY    32  22  66 NE3       30.23S
ROANOKE        CLEAR     42  30  62 SE9       30.22F
RICHMOND       PTCLDY    43  26  51 E3        30.28S
RALEIGH        CLOUDY    46  34  62 NE6       30.24R

$$

ANZ530>537-212300-
MARINE OBSERVATIONS

STATION/POSITION TIME  TEMP    WIND        PRES
                       AIR SEA DIR/SP/G
                 (UTC) (F)     (DEG/KT/KT) (MB)
THOMAS PT LIGHT  2200   39 41   60/  4/  5 1027.7R
BALT KEY BRIDGE  2200   38     120/  5/  7 1026.0R
COVE POINT       2200   37      50/  4/  5 1026.2R
LEWISETTA        2200   39 41   90/  4/  5 1026.3R
SOLOMONS ISLAND  2200      43                N/A

$$




USA.gov is the U.S. government's official web portal to all federal, state and local government web resources and services.